Flag for Canada Weather past 2 weeks in Whistler, British Columbia, Canada

Now
85 °F

Pleasantly warm.


Feels Like: 84 °F
Forecast: 58 / 80 °F
Wind: 8 mph from Southeast

Location: Squamish Airport

Current Time: Jun 29, 2015 at 5:13:21 PM

Latest Report: Jun 29, 2015 at 4:00 PM


Visibility: N/A

Pressure: 29.89 "Hg

Humidity: 38%

Dew point: 57 °F

Location of WhistlerLocation

Historic Weather in Whistler — Graph

°F

Whistler temperature yesterday

Maximum temperature yesterday: 92 °F (at 12:00 PM)
Minimum temperature yesterday: 61 °F (at 5:00 AM)
Average temperature yesterday: 75 °F

Past Weeks' High & Low Weather Summary

 TemperatureHumidityPressure
High92 °F (Jun 28, 12:00 PM)100% (Jun 20, 5:00 AM)30.13 "Hg (Jun 20, 5:00 AM)
Low46 °F (Jun 20, 5:00 AM)19% (Jun 21, 3:00 PM)29.83 "Hg (Jun 15, 7:00 PM)
Average67 °F59%29.99 "Hg
* Reported Jun 14 4:00 PM — Jun 29 4:00 PM, Whistler, Weather by CustomWeather, © 2015

Note: Actual official high and low records may vary slightly from our data, if they occured in-between our weather recording intervals... More about our weather records

Advertising

Whistler weather history for previous 24 hours

 ConditionsComfort  
Time TempWeatherWind HumidityBarometerVisibility
4:00 PM
Mon, Jun 29
85 °FPleasantly warm.8 mph38%29.89 "HgN/A
3:00 PM85 °FPleasantly warm.8 mph38%29.88 "HgN/A
2:00 PM85 °FPleasantly warm.10 mph38%29.89 "HgN/A
1:00 PM85 °FPleasantly warm.6 mph39%29.90 "HgN/A
12:00 PM82 °FWarm.8 mph44%29.91 "HgN/A
11:00 AM82 °FWarm.6 mph46%29.91 "HgN/A
10:00 AM78 °FWarm.1 mph56%29.92 "HgN/A
9:00 AM71 °FMild.1 mph73%29.93 "HgN/A
8:00 AM67 °FMild.2 mph86%29.93 "HgN/A
7:00 AM66 °FMild.2 mph88%29.94 "HgN/A
6:00 AM65 °FMild.2 mph89%29.94 "HgN/A
5:00 AM65 °FMild.2 mph90%29.94 "HgN/A
4:00 AM66 °FMild.3 mph90%29.94 "HgN/A
3:00 AM67 °FMild.2 mph88%29.94 "HgN/A
2:00 AM67 °FMild.3 mph88%29.95 "HgN/A
1:00 AM68 °FMild.5 mph85%29.96 "HgN/A
12:00 AM68 °FMild.5 mph88%29.99 "HgN/A
11:00 PM
Sun, Jun 28
69 °FMild.5 mph82%30.01 "HgN/A
10:00 PM69 °FMild.1 mph91%30.02 "HgN/A
9:00 PM71 °FMild.2 mph80%29.97 "HgN/A
8:00 PM77 °FMild.2 mph57%29.94 "HgN/A
7:00 PM78 °FWarm.3 mph53%29.91 "HgN/A
6:00 PM80 °FWarm.3 mph44%29.90 "HgN/A
5:00 PM82 °FPleasantly warm.8 mph40%29.90 "HgN/A
Weather by CustomWeather, © 2015

See weather overviewHow to use our weather pages